Elmendorf Air Force Base, AK

1:22 PM AKST on February 08, 2016 (GMT -0900)
Elmendorf Air Force Base

Weather History for PAED - November, 2012

Change the Weather History Date:

Sunday, November 4, 2012

  Actual Average Record
Temperature  
Mean Temperature 20 °F -  
Max Temperature 27 °F 30 °F 48 °F (2002)
Min Temperature 11 °F 20 °F -5 °F (1975)
Degree Days  
Heating Degree Days 44    
Moisture  
Dew Point 11 °F    
Average Humidity 68    
Maximum Humidity 81    
Minimum Humidity 51    
Precipitation  
Precipitation 0.00 in - - ()
Sea Level Pressure  
Sea Level Pressure 29.37 in    
Wind  
Wind Speed 5 mph (NE)    
Max Wind Speed 9 mph    
Max Gust Speed -    
Visibility 10 miles    
Events      
Averages and records for this station are not official NWS values.
T = Trace of Precipitation, MM = Missing Value Source: NWS Daily Summary

Daily Weather History Graph

Daily Weather History Graph

Search for Another Location

Airport or City:

Trip Planner

Search our weather history database for the weather conditions in past years. The results will help you decide how hot, cold, wet, or windy it might be!

Date:

Astronomy

Nov. 04, 2012 Rise Set
Actual Time 8:37 AM AKST 4:47 PM AKST
Civil Twilight 7:48 AM AKST 5:35 PM AKST
Nautical Twilight 6:56 AM AKST 6:27 PM AKST
Astronomical Twilight 6:06 AM AKST 7:17 PM AKST
Moon 9:21 PM AKST (11/4) 1:45 PM AKST (11/4)
Length of Visible Light 9h 46m
Length of Day
8h 09m
Waning Gibbous, 70% of the Moon is Illuminated
Nov 4
Waning Gibbous
Nov 6
Last Quarter
Nov 13
New
Nov 20
First Quarter
Nov 28
Full

Hourly Weather History & Observations

Time (AKST) Temp. Windchill Dew Point Humidity Pressure Visibility Wind Dir Wind Speed Gust Speed Precip Events Conditions
12:55 AM 25.3 °F 18.5 °F 14.9 °F 65% 29.39 in 10.0 mi North 5.8 mph - N/A   Mostly Cloudy
1:55 AM 23.7 °F 16.6 °F 14.9 °F 69% 29.40 in 10.0 mi NE 5.8 mph - N/A   Mostly Cloudy
1:55 AM 19.8 °F 13.2 °F 13.3 °F 76% 29.39 in 10.0 mi NE 4.6 mph - N/A   Partly Cloudy
2:55 AM 17.2 °F 10.2 °F 12.2 °F 81% 29.38 in 10.0 mi NNE 4.6 mph - N/A   Clear
3:55 AM 21.6 °F 13.0 °F 13.8 °F 72% 29.38 in 10.0 mi NNE 6.9 mph - N/A   Clear
4:55 AM 21.4 °F 11.1 °F 13.6 °F 72% 29.37 in 10.0 mi North 9.2 mph - N/A   Clear
5:55 AM 20.3 °F 12.5 °F 12.6 °F 72% 29.37 in 10.0 mi Variable 5.8 mph - N/A   Clear
6:55 AM 19.4 °F 11.5 °F 12.4 °F 74% 29.37 in 10.0 mi NNE 5.8 mph - N/A   Clear
7:55 AM 16.5 °F 9.4 °F 11.1 °F 79% 29.37 in 10.0 mi NE 4.6 mph - N/A   Clear
8:55 AM 16.0 °F 6.3 °F 11.1 °F 81% 29.37 in 10.0 mi ENE 6.9 mph - N/A   Clear
9:55 AM 20.3 °F 11.5 °F 12.2 °F 71% 29.36 in 10.0 mi NNE 6.9 mph - N/A   Clear
10:55 AM 22.1 °F - 12.9 °F 68% 29.36 in 10.0 mi Calm Calm - N/A   Clear
11:55 AM 24.6 °F 17.7 °F 12.0 °F 59% 29.36 in 10.0 mi NNE 5.8 mph - N/A   Clear
12:55 PM 26.4 °F 19.8 °F 12.0 °F 55% 29.35 in 10.0 mi Variable 5.8 mph - N/A   Clear
1:55 PM 26.8 °F 19.3 °F 11.7 °F 53% 29.34 in 10.0 mi NNE 6.9 mph - N/A   Clear
2:55 PM 27.0 °F 21.6 °F 11.1 °F 51% 29.34 in 10.0 mi NE 4.6 mph - N/A   Clear
3:55 PM 24.8 °F - 12.4 °F 59% 29.33 in 10.0 mi Calm Calm - N/A   Clear
4:55 PM 23.0 °F - 11.1 °F 60% 29.34 in 10.0 mi Calm Calm - N/A   Clear
5:55 PM 17.8 °F - 10.0 °F 72% 29.36 in 10.0 mi Calm Calm - N/A   Clear
6:55 PM 17.2 °F 11.9 °F 10.0 °F 73% 29.37 in 10.0 mi NE 3.5 mph - N/A   Clear
7:55 PM 14.4 °F 8.6 °F 8.1 °F 76% 29.39 in 10.0 mi NNE 3.5 mph - N/A   Clear
8:55 PM 21.6 °F 16.8 °F 6.8 °F 53% 29.40 in 10.0 mi NNE 3.5 mph - N/A   Clear
9:55 PM 14.2 °F 8.4 °F 4.6 °F 66% 29.42 in 10.0 mi NE 3.5 mph - N/A   Clear
10:55 PM 11.7 °F 3.7 °F 3.4 °F 69% 29.43 in 10.0 mi NE 4.6 mph - N/A   Clear